Starlink 4778

operational
NORAD ID: 53836 Int'l Des: 2022-114 Owner: SPXS Country: US Constellation: starlink
LEOCIRCULAR

About Starlink 4778

Description loading...

Live Position

Loading 3D Globe...

Upcoming Passes

Altitude History

Altitude vs Time

uPlot chart will show altitude changes over time

Two-Line Element Set

1 53836U 22114U 25352.57844346 .00002027 00000-0 14542-3 0 9993
2 53836 53.2179 298.4462 0001295 88.5266 271.5874 15.08834698180725
Epoch: Dec 18, 2025 • Age: 16 hours

Current Status

Altitude 539.6 km
Velocity 7.59 km/s
Sub-Earth Point 12.96°N, 129.45°E
Launch Date Sep 19, 2022
Age 3.2 years
Type internet

Technical Details

Classification Payload
Mass 305.00 kg
Dry Mass 290.00 kg
Total Mass 305.00 kg
Length 0.20 m
Diameter 2.80 m
Span 9.00 m
Shape Box + pan
Manufacturer SPXS
Bus Type Starlink
Phase Status In Orbit
Owner/State SPXS/US

Large Constellations

Loading constellations...